Location: Catacaguana
(10.4120°N, 66.7591°W)
Time: 05:28:55
(UTC+00:00)

Cosmos 1606 - Pass Details

Date: 27 May 2022
Orbit: 497 x 521 km, 82.5° (Epoch: 26 June)

Event Time Altitude Azimuth Distance (km) Brightness Sun altitude
Rises 09:12:37 0° 7° (N) 2,577 6.7 -12.5°
Reaches altitude 10° 09:14:48 10° 14° (NNE) 1,697 5.9 -12.0°
Maximum altitude 09:18:18 40° 85° (E) 747 4.1 -11.2°
Drops below altitude 10° 09:21:50 10° 156° (SSE) 1,709 5.3 -10.4°
Sets 09:24:03 0° 164° (SSE) 2,598 6.2 -9.9°
